Weather History for Belen, NM

Change the Weather History Date:

Saturday, September 28, 2013

  Actual Average (KABQ) Record (KABQ)
Temperature  
Mean Temperature 53 °F 65 °F  
Max Temperature 69 °F 76 °F 89 °F (1979)
Min Temperature 37 °F 53 °F 33 °F (1916)
Degree Days  
Heating Degree Days 12 2  
Month to date heating degree days 20  
Since 1 July heating degree days 20  
Cooling Degree Days 0 2  
Month to date cooling degree days 153  
Year to date cooling degree days 1310  
Growing Degree Days 3 (Base 50)    
Moisture  
Dew Point 28 °F    
Average Humidity 43    
Maximum Humidity 71    
Minimum Humidity 17    
Precipitation  
Precipitation 0.00 in 0.04 in 2.08 in (1893)
Month to date precipitation 1.01  
Year to date precipitation 7.29  
Snow  
Snow 0.00 in - - ()
Month to date snowfall  
Since 1 July snowfall  
Since 1 September snowfall  
Snow Depth -    
Sea Level Pressure  
Sea Level Pressure 30.23 in    
Wind  
Wind Speed 7 mph (NNW)    
Max Wind Speed 12 mph    
Max Gust Speed 16 mph    
Visibility 10 miles    
Events      
T = Trace of Precipitation, MM = Missing Value Source: NWS Daily Summary

Daily Weather History Graph

Daily Weather History Graph

Search for Another Location

Airport:

Trip Planner

Search our weather history database for the weather conditions in past years. The results will help you decide how hot, cold, wet, or windy it might be!

Date:

Astronomy

Sep. 28, 2013 Rise Set
Actual Time 6:59 AM MDT 6:55 PM MDT
Civil Twilight 6:34 AM MDT 7:20 PM MDT
Nautical Twilight 6:05 AM MDT 7:49 PM MDT
Astronomical Twilight 5:36 AM MDT 8:18 PM MDT
Moon 1:02 AM MDT (9/28) 3:04 PM MDT (9/28)
Length of Visible Light 12h 45m
Length of Day
11h 55m
Waning Crescent, 35% of the Moon is Illuminated
Sep 28
Waning Crescent
Oct 4
New
Oct 11
First Quarter
Oct 18
Full
Oct 26
Last Quarter

Hourly Weather History & Observations

Time (MDT) Temp. Windchill Dew Point Humidity Pressure Visibility Wind Dir Wind Speed Gust Speed Precip Events Conditions
12:15 AM 48.6 °F - 32.4 °F 54% 30.14 in 10.0 mi NNW 10.4 mph - N/A   Clear
12:35 AM 45.3 °F 40.6 °F 32.9 °F 62% 30.15 in 10.0 mi NW 9.2 mph - N/A   Clear
12:55 AM 46.9 °F - 31.6 °F 55% 30.15 in 10.0 mi NNW 9.2 mph - N/A   Clear
1:15 AM 44.1 °F 40.8 °F 32.0 °F 63% 30.15 in 10.0 mi NNW 5.8 mph - N/A   Clear
1:35 AM 45.0 °F 41.2 °F 31.5 °F 59% 30.15 in 10.0 mi NW 6.9 mph - N/A   Clear
1:55 AM 41.2 °F 36.0 °F 32.0 °F 70% 30.16 in 10.0 mi WNW 8.1 mph - N/A   Clear
2:15 AM 42.4 °F 37.0 °F 31.6 °F 66% 30.16 in 10.0 mi NW 9.2 mph - N/A   Clear
2:35 AM 42.8 °F 37.0 °F 31.1 °F 63% 30.16 in 10.0 mi NW 10.4 mph - N/A   Clear
2:55 AM 44.6 °F 39.7 °F 30.2 °F 57% 30.16 in 10.0 mi NW 9.2 mph - N/A   Clear
3:15 AM 42.8 °F 37.5 °F 30.2 °F 61% 30.16 in 10.0 mi NW 9.2 mph - N/A   Clear
3:35 AM 41.2 °F 36.6 °F 30.2 °F 65% 30.17 in 10.0 mi NW 6.9 mph - N/A   Clear
3:55 AM 39.4 °F 32.3 °F 30.4 °F 70% 30.17 in 10.0 mi WNW 11.5 mph - N/A   Clear
4:15 AM 41.5 °F 35.0 °F 29.7 °F 63% 30.18 in 10.0 mi WNW 11.5 mph - N/A   Clear
4:35 AM 40.3 °F 34.4 °F 30.0 °F 67% 30.18 in 10.0 mi WNW 9.2 mph - N/A   Clear
4:55 AM 39.7 °F 35.6 °F 29.3 °F 66% 30.19 in 10.0 mi NNE 5.8 mph - N/A   Clear
5:15 AM 38.5 °F 32.7 °F 28.9 °F 69% 30.19 in 10.0 mi North 8.1 mph - N/A   Clear
5:35 AM 39.2 °F 34.2 °F 28.9 °F 67% 30.20 in 10.0 mi North 6.9 mph - N/A   Clear
5:55 AM 40.1 °F 35.3 °F 28.6 °F 63% 30.21 in 10.0 mi NNE 6.9 mph - N/A   Clear
6:15 AM 38.5 °F 32.7 °F 28.4 °F 67% 30.22 in 10.0 mi North 8.1 mph - N/A   Clear
6:35 AM 39.6 °F 34.7 °F 28.4 °F 64% 30.22 in 10.0 mi North 6.9 mph - N/A   Clear
6:55 AM 37.8 °F 32.5 °F 28.2 °F 68% 30.23 in 10.0 mi NNW 6.9 mph - N/A   Clear
7:15 AM 37.0 °F 30.4 °F 28.4 °F 71% 30.23 in 10.0 mi North 9.2 mph - N/A   Clear
7:35 AM 38.3 °F 35.9 °F 29.7 °F 71% 30.25 in 10.0 mi North 3.5 mph - N/A   Clear
7:55 AM 43.3 °F 41.7 °F 30.7 °F 61% 30.25 in 10.0 mi North 3.5 mph - N/A   Clear
8:15 AM 48.7 °F - 29.3 °F 47% 30.26 in 10.0 mi North 3.5 mph - N/A   Clear
8:35 AM 50.7 °F - 27.7 °F 41% 30.27 in 10.0 mi North 9.2 mph - N/A   Clear
8:55 AM 52.0 °F - 27.5 °F 39% 30.27 in 10.0 mi NNW 10.4 mph - N/A   Clear
9:15 AM 53.4 °F - 27.7 °F 37% 30.28 in 10.0 mi NW 9.2 mph - N/A   Clear
9:35 AM 54.5 °F - 27.9 °F 36% 30.29 in 10.0 mi NNW 9.2 mph - N/A   Clear
9:55 AM 55.2 °F - 29.5 °F 37% 30.29 in 10.0 mi NW 6.9 mph - N/A   Clear
10:15 AM 56.8 °F - 28.8 °F 34% 30.29 in 10.0 mi NW 8.1 mph - N/A   Clear
10:35 AM 57.9 °F - 28.4 °F 32% 30.29 in 10.0 mi NNW 5.8 mph - N/A   Clear
10:55 AM 59.4 °F - 26.8 °F 29% 30.29 in 10.0 mi NNW 10.4 mph 16.1 mph N/A   Clear
11:15 AM 60.3 °F - 28.2 °F 30% 30.29 in 10.0 mi NNW 11.5 mph 16.1 mph N/A   Clear
11:35 AM 60.6 °F - 29.5 °F 31% 30.29 in 10.0 mi NW 9.2 mph - N/A   Clear
11:55 AM 61.9 °F - 29.5 °F 29% 30.29 in 10.0 mi North 10.4 mph - N/A   Clear
12:15 PM 62.6 °F - 27.9 °F 27% 30.28 in 10.0 mi North 9.2 mph - N/A   Clear
12:35 PM 63.0 °F - 27.1 °F 26% 30.28 in 10.0 mi NNW 8.1 mph - N/A   Clear
12:55 PM 63.1 °F - 23.5 °F 22% 30.27 in 10.0 mi NNW 3.5 mph - N/A   Clear
1:15 PM 64.8 °F - 24.4 °F 22% 30.27 in 10.0 mi NNW 3.5 mph - N/A   Clear
1:35 PM 64.9 °F - 24.8 °F 22% 30.26 in 10.0 mi North 8.1 mph - N/A   Clear
1:55 PM 65.5 °F - 22.1 °F 19% 30.25 in 10.0 mi Calm Calm - N/A   Clear
2:15 PM 65.8 °F - 22.8 °F 20% 30.25 in 10.0 mi NNE 5.8 mph - N/A   Clear
2:35 PM 66.9 °F - 23.2 °F 19% 30.23 in 10.0 mi North 3.5 mph - N/A   Clear
2:55 PM 67.5 °F - 23.4 °F 19% 30.23 in 10.0 mi NNW 4.6 mph - N/A   Clear
3:15 PM 68.0 °F - 23.9 °F 19% 30.23 in 10.0 mi NNW 6.9 mph - N/A   Clear
3:35 PM 67.5 °F - 22.6 °F 18% 30.22 in 10.0 mi Calm Calm - N/A   Clear
3:55 PM 68.5 °F - 23.2 °F 18% 30.22 in 10.0 mi NW 4.6 mph - N/A   Clear
4:15 PM 69.6 °F - 23.9 °F 18% 30.22 in 10.0 mi North 4.6 mph - N/A   Clear
4:35 PM 68.7 °F - 23.0 °F 18% 30.22 in 10.0 mi WNW 3.5 mph - N/A   Clear
4:55 PM 69.4 °F - 23.2 °F 17% 30.22 in 10.0 mi WSW 5.8 mph - N/A   Clear
5:15 PM 68.7 °F - 22.5 °F 17% 30.22 in 10.0 mi Calm Calm - N/A   Clear
5:35 PM 68.2 °F - 22.1 °F 17% 30.22 in 10.0 mi Calm Calm - N/A   Clear
5:55 PM 68.0 °F - 22.6 °F 18% 30.22 in 10.0 mi Calm Calm - N/A   Clear
6:15 PM 66.9 °F - 24.8 °F 20% 30.22 in 10.0 mi NE 3.5 mph - N/A   Clear
6:35 PM 65.3 °F - 29.3 °F 26% 30.22 in 10.0 mi ENE 4.6 mph - N/A   Clear
6:55 PM 63.0 °F - 27.5 °F 26% 30.22 in 10.0 mi East 5.8 mph - N/A   Clear
7:15 PM 61.0 °F - 28.2 °F 29% 30.22 in 10.0 mi East 3.5 mph - N/A   Clear
7:35 PM 57.9 °F - 30.4 °F 35% 30.23 in 10.0 mi Calm Calm - N/A   Clear
7:55 PM 57.6 °F - 29.5 °F 34% 30.23 in 10.0 mi Calm Calm - N/A   Clear
8:15 PM 55.4 °F - 29.1 °F 37% 30.24 in 10.0 mi Calm Calm - N/A   Clear
8:35 PM 55.0 °F - 29.7 °F 38% 30.25 in 10.0 mi Calm Calm - N/A   Clear
8:55 PM 53.1 °F - 30.0 °F 41% 30.25 in 10.0 mi Calm Calm - N/A   Clear
9:15 PM 53.2 °F - 28.9 °F 39% 30.26 in 10.0 mi Calm Calm - N/A   Clear
9:35 PM 51.4 °F - 31.8 °F 47% 30.26 in 10.0 mi Calm Calm - N/A   Clear
9:55 PM 49.8 °F - 32.4 °F 51% 30.27 in 10.0 mi Calm Calm - N/A   Clear
10:15 PM 50.4 °F - 29.5 °F 45% 30.26 in 10.0 mi WSW 3.5 mph - N/A   Clear
10:35 PM 46.0 °F - 32.4 °F 59% 30.27 in 10.0 mi Calm Calm - N/A   Clear
10:55 PM 50.7 °F - 31.3 °F 47% 30.28 in 10.0 mi Calm Calm - N/A   Clear
11:15 PM 48.4 °F - 32.0 °F 53% 30.27 in 10.0 mi NNW 4.6 mph - N/A   Clear
11:35 PM 46.6 °F - 31.5 °F 56% 30.28 in 10.0 mi ENE 3.5 mph - N/A   Clear
11:55 PM 45.9 °F - 31.6 °F 58% 30.27 in 10.0 mi Calm Calm - N/A   Clear